FALCON 9 DEB (53874 NORAD) Tracking and Keplerian Element Data

This shows tracking and keplerian element data for the satellite.

Feedback or suggestion? Click here.




ElementValue
Catalog53874
NameFALCON 9 DEB
Epoch Orbit216
Epoch Day268.62907628
Epoch Year2022
RAAN225.8667
Inclination53.2155
Eccentricity0.006065
Argument of Perigee66.9872
Mean Anonmoly293.7543
Mean Motion16.0465251
Decay Rate0.00669622
L11 53874U 22114BJ 22268.62907628 .00669622 22851-3 76130-3 0 9999
L22 53874 53.2155 225.8667 0060650 66.9872 293.7543 16.04652510 2163



Live tracking and technical data element details for FALCON 9 DEB (NORAD 53874). FALCON 9 DEB can be tracked NOW for your location showing map with azimuth and elevation plus other details from your city location.







IsCatalogInMostPopularTable: catalog: 53874, numindb: -1

Insert: records affected: 1


GetName: 53874 FALCON 9 DEB

Hit Count: inserted at: Thu, 08 Dec 2022 10:21:34 GMT